TITAN 3C TRANSTAGE DEB, 43517

Orbit data source: Space-Track

TITAN 3C TRANSTAGE DEB, 43517 is space debris in GEO originally from a launch on Sun, 09 Feb 1969 UTC launched from the Air Force Eastern Test Range (AFETR). Debris objects in space refer to the collection of defunct objects orbiting the Earth. Examples of debris include non-operational satellites, rocket bodies, and fragments generated from explosions, collisions, or faulty payload assembly.

Not visible in the next 10 days
Identifier
43517, 1969-013V
Orbit
GEO
Country
Flag of USUS
Related business
Manufacturer
Martin Marietta
Mission
Spacecraft
Bus & Motor
Unknown
Mass
Unknown
Launch date (UTC)
1969-02-09 (57 years ago)
Launch vehicle
Unknown
Launch site
Air Force Eastern Test Range (AFETR)
Object type
Payload
Rocket body
Debris
Shape & HBR
Unknown shape, 1.1 m
Radar Cross Section
RCS unknown

Expand to show TLE details & history
Last TLE update: 15 hours ago

TLE from 15 hours ago
0 TITAN 3C TRANSTAGE DEB
1 43517U 69013V   26034.91066807 -.00000115  00000-0  00000-0 0  9999
2 43517   1.0123 117.2588 0095013 184.2098 175.1926  0.94333757 26595
Epoch: 2026-02-03T21:51Z
TLE epoch observation values (Epoch: 2026-02-03T21:51:21.721Z)
Latitude
0.00001°
Longitude
14.86696°
Altitude
37,955.207 km
Speed
2.984 km/s
True Right ascension
07h 47m 10s
True Declination
0° 00' 00"
Sunlit
Object was in daylight at epoch
Visualization orbit readout
Latitude
Unknown
Longitude
Unknown
Altitude
Unknown
Speed
Unknown
Apparent Right ascension
Unknown
Apparent Declination
Unknown
Sunlit
N/A
Visualization observer readout
Local Sidereal Time
14:33:07
Azimuth
Unknown
Elevation
Unknown
Doppler factor
Unknown
Orbital elements
Apogee altitude
37,956.261 km
Perigee altitude
37,121.721 km
Semi-major axis
43,917.128 km
Eccentricity
0.0095
Inclination
1.0123°
RAAN
117.2588°
Arg. of periapsis
184.2098°
True anomaly
175.28278°
Mean anomaly
175.1926°
Eccentric anomaly
175.2378°
Mean motion
0.23583 °/min
Orbital period
1,526.55 mins
BSTAR
0
Loading maneuver chart data...
Computing Atmospheric mass density...

Documentation

Showing up to 5 results
|